DJ8HS-13 Weather Reports


Display with metric or nautical units.
time (UTC)temp
F
wind
direction
speed
MPH
gust
MPH
rain 1hr
in
rain 24hr
in
rain mn
in
humidity
%
barometer
mb
20260507064427 52 293 1.0 5.0 0.00 0.05 0.05 75
20260507063927 52 309 2.0 3.0 0.00 0.05 0.05 75
20260507063427 52 15 1.0 4.0 0.00 0.05 0.05 76
20260507062927 52 253 0.0 2.0 0.00 0.05 0.05 76
20260507062427 52 45 1.0 3.0 0.00 0.05 0.05 76
20260507061927 52 357 1.0 3.0 0.00 0.05 0.05 75
20260507061427 52 12 0.0 4.0 0.00 0.05 0.05 75
20260507060927 52 35 2.0 3.0 0.00 0.05 0.05 76
20260507060427 52 50 2.0 4.0 0.00 0.05 0.05 76
20260507055927 52 288 2.0 2.0 0.00 0.05 0.05 77
20260507055427 52 298 0.0 3.0 0.00 0.05 0.05 77
20260507054927 52 316 0.0 2.0 0.00 0.05 0.05 77
20260507054427 52 5 1.0 4.0 0.00 0.05 0.05 77
20260507053927 52 18 1.0 4.0 0.00 0.05 0.05 77
20260507053427 52 343 1.0 3.0 0.00 0.05 0.05 77
20260507052927 52 2 0.0 3.0 0.00 0.05 0.05 77
20260507052427 52 289 2.0 4.0 0.00 0.05 0.05 77
20260507051927 52 326 0.0 6.0 0.00 0.05 0.05 77
20260507051427 52 337 3.0 3.0 0.00 0.05 0.05 77
20260507050927 52 307 0.0 4.0 0.00 0.05 0.05 77
20260507050427 52 327 1.0 6.0 0.00 0.05 0.05 77
20260507045927 52 310 1.0 4.0 0.00 0.05 0.05 77
20260507045427 52 278 4.0 7.0 0.00 0.05 0.05 77
20260507044927 52 0 1.0 4.0 0.00 0.05 0.05 77
20260507044427 52 331 1.0 6.0 0.00 0.05 0.05 77
20260507043927 52 18 0.0 3.0 0.00 0.05 0.05 77
20260507043427 52 12 1.0 4.0 0.00 0.05 0.05 77
20260507042927 52 326 2.0 4.0 0.00 0.05 0.05 77
20260507042427 52 316 0.0 3.0 0.00 0.05 0.05 77
20260507041927 52 343 0.0 5.0 0.00 0.05 0.05 77
20260507041427 52 267 0.0 2.0 0.00 0.05 0.05 77
20260507040927 52 351 1.0 7.0 0.00 0.05 0.05 77
20260507040427 52 300 0.0 3.0 0.00 0.05 0.05 78
20260507035927 52 337 0.0 0.0 0.00 0.05 0.05 78
20260507035427 52 337 0.0 3.0 0.00 0.05 0.05 78
20260507034927 52 348 1.0 4.0 0.00 0.05 0.05 78
20260507034427 52 323 1.0 2.0 0.00 0.05 0.05 78
20260507033927 52 293 2.0 5.0 0.00 0.05 0.05 78
20260507033427 52 330 2.0 5.0 0.00 0.05 0.05 78
20260507032927 52 312 0.0 3.0 0.00 0.05 0.05 78
20260507032427 52 312 2.0 3.0 0.00 0.05 0.05 78
20260507031927 52 306 0.0 2.0 0.00 0.05 0.05 78
20260507031427 52 319 0.0 2.0 0.00 0.05 0.05 78
20260507030927 52 326 0.0 3.0 0.00 0.05 0.05 78
20260507030427 52 347 0.0 3.0 0.00 0.05 0.05 78
20260507025927 52 286 3.0 4.0 0.00 0.05 0.05 78
20260507025427 52 344 0.0 3.0 0.00 0.05 0.05 78
20260507024927 52 42 0.0 2.0 0.00 0.05 0.05 78
20260507024427 52 37 0.0 2.0 0.00 0.05 0.05 78
20260507023927 52 226 0.0 1.0 0.00 0.05 0.05 78
20260507023427 52 29 1.0 6.0 0.00 0.05 0.05 78
20260507022927 52 334 0.0 5.0 0.00 0.05 0.05 78
20260507022427 53 307 0.0 2.0 0.00 0.05 0.05 78
20260507021927 53 66 0.0 2.0 0.00 0.05 0.05 79
20260507021428 52 67 0.0 0.0 0.00 0.05 0.05 79
20260507020928 52 67 0.0 3.0 0.00 0.05 0.05 79
20260507020428 52 75 0.0 3.0 0.00 0.05 0.05 79
20260507015928 53 357 0.0 6.0 0.00 0.05 0.05 79
20260507015428 52 350 0.0 4.0 0.00 0.05 0.05 79
20260507014928 52 32 0.0 3.0 0.00 0.05 0.05 79
20260507014428 53 306 0.0 4.0 0.00 0.05 0.05 79
20260507013928 53 320 0.0 4.0 0.00 0.05 0.05 79
20260507013428 53 253 1.0 4.0 0.00 0.05 0.05 79
20260507012928 53 281 1.0 5.0 0.00 0.05 0.05 79
20260507012428 53 46 2.0 5.0 0.00 0.05 0.05 79
20260507011928 53 317 1.0 5.0 0.00 0.05 0.05 79
20260507011428 53 265 0.0 2.0 0.00 0.05 0.05 79
20260507010928 53 213 0.0 3.0 0.00 0.05 0.05 79
20260507010428 53 278 0.0 3.0 0.00 0.05 0.05 79
20260507005928 53 230 0.0 4.0 0.00 0.05 0.05 79
20260507005428 53 265 0.0 6.0 0.00 0.05 0.05 79
20260507004928 53 305 1.0 3.0 0.00 0.05 0.05 79
20260507004428 53 267 1.0 2.0 0.00 0.05 0.05 79
20260507003928 53 264 2.0 8.0 0.00 0.05 0.05 80
20260507003428 53 261 7.0 7.0 0.00 0.05 0.05 80
20260507002928 53 329 0.0 4.0 0.00 0.05 0.05 80
20260507002428 53 230 0.0 5.0 0.00 0.05 0.05 80
20260507001928 53 355 0.0 4.0 0.00 0.05 0.05 80
20260507001428 53 343 3.0 3.0 0.00 0.05 0.05 80
20260507000928 53 28 0.0 3.0 0.00 0.05 0.05 80
20260507000428 53 33 2.0 2.0 0.00 0.05 0.05 80
20260506235928 53 292 0.0 5.0 0.00 0.05 0.05 80
20260506235428 53 274 0.0 4.0 0.00 0.05 0.05 80
20260506234928 53 1 0.0 3.0 0.00 0.05 0.05 80
20260506234428 53 282 1.0 9.0 0.00 0.05 0.05 80
20260506233928 53 343 1.0 4.0 0.00 0.05 0.05 79
20260506233428 53 246 3.0 3.0 0.00 0.05 0.05 79
20260506232928 53 282 0.0 5.0 0.00 0.05 0.05 79
20260506232428 53 320 2.0 9.0 0.00 0.05 0.05 79
20260506231928 53 299 1.0 6.0 0.00 0.05 0.05 79
20260506231428 53 350 1.0 6.0 0.00 0.05 0.05 79
20260506230928 53 293 1.0 6.0 0.00 0.05 0.05 79
20260506230428 53 123 0.0 8.0 0.00 0.05 0.05 79
20260506225928 53 19 1.0 3.0 0.00 0.05 0.05 79
20260506225428 53 323 0.0 4.0 0.00 0.05 0.05 79
20260506224928 53 246 0.0 6.0 0.00 0.05 0.05 79
20260506224428 53 323 1.0 5.0 0.00 0.05 0.05 79
20260506223928 53 236 2.0 8.0 0.00 0.05 0.05 78
20260506223428 53 305 0.0 0.0 0.00 0.05 0.05 79
20260506222928 53 305 0.0 9.0 0.00 0.05 0.05 79
20260506222428 54 299 2.0 8.0 0.00 0.05 0.05 79
20260506221928 54 322 0.0 4.0 0.00 0.05 0.05 79
20260506221428 54 331 1.0 6.0 0.00 0.05 0.05 79
20260506220928 54 313 1.0 2.0 0.00 0.09 0.05 79
20260506220428 54 268 0.0 3.0 0.00 0.09 0.05 79
20260506215928 54 355 1.0 5.0 0.00 0.09 0.05 79
20260506215428 54 316 1.0 3.0 0.00 0.09 0.05 79
20260506214928 54 317 2.0 3.0 0.00 0.09 0.05 79
20260506214428 54 239 0.0 7.0 0.00 0.09 0.05 79
20260506213928 54 184 2.0 6.0 0.00 0.09 0.05 78
20260506213428 54 305 0.0 2.0 0.00 0.09 0.05 78
20260506212928 54 316 1.0 2.0 0.00 0.09 0.05 78
20260506212428 54 261 0.0 6.0 0.00 0.09 0.05 78
20260506211928 54 323 0.0 7.0 0.00 0.09 0.05 78
20260506211428 55 229 0.0 3.0 0.00 0.09 0.05 78
20260506210928 55 310 1.0 6.0 0.00 0.10 0.05 78
20260506210428 55 18 0.0 3.0 0.00 0.10 0.05 78
20260506205928 55 99 0.0 2.0 0.00 0.10 0.05 78
20260506205428 55 9 1.0 3.0 0.00 0.10 0.05 78
20260506204928 55 330 1.0 4.0 0.00 0.10 0.05 78
20260506204428 55 354 0.0 3.0 0.00 0.10 0.05 78
20260506203928 55 265 0.0 0.0 0.00 0.10 0.05 79
20260506203428 55 265 0.0 6.0 0.00 0.10 0.05 78
20260506202928 55 275 3.0 5.0 0.00 0.10 0.05 78
20260506202428 55 288 0.0 2.0 0.00 0.10 0.05 78
20260506201928 55 315 0.0 4.0 0.00 0.10 0.05 78
20260506201428 55 330 1.0 4.0 0.00 0.10 0.05 78
20260506200928 56 216 1.0 2.0 0.00 0.10 0.05 78
20260506200428 55 268 0.0 7.0 0.00 0.10 0.05 78
20260506195928 56 268 0.0 1.0 0.00 0.10 0.05 77
20260506195428 56 282 0.0 3.0 0.00 0.10 0.05 77
20260506194928 56 357 0.0 2.0 0.00 0.10 0.05 77
20260506194428 56 286 0.0 2.0 0.00 0.10 0.05 77
20260506193928 56 303 0.0 2.0 0.00 0.10 0.05 77
20260506193428 56 11 0.0 3.0 0.00 0.10 0.05 77
20260506192928 57 330 1.0 5.0 0.00 0.10 0.05 77
20260506192428 57 135 0.0 2.0 0.00 0.10 0.05 77
20260506191928 57 285 0.0 3.0 0.00 0.10 0.05 77
20260506191428 57 357 0.0 0.0 0.00 0.10 0.05 77
20260506190928 57 357 0.0 0.0 0.00 0.10 0.05 77
20260506190428 57 357 0.0 0.0 0.00 0.10 0.05 77
20260506185928 57 357 0.0 3.0 0.00 0.10 0.05 77
20260506185428 57 338 0.0 4.0 0.00 0.10 0.05 77
20260506184928 57 30 0.0 5.0 0.00 0.10 0.05 77
20260506184428 57 109 0.0 4.0 0.01 0.10 0.05 77
20260506183928 57 341 1.0 5.0 0.01 0.10 0.05 77
20260506183429 58 32 0.0 4.0 0.01 0.10 0.05 77
20260506182928 58 98 1.0 4.0 0.01 0.10 0.05 77
20260506182428 58 68 2.0 4.0 0.01 0.10 0.05 77
20260506181928 58 5 1.0 3.0 0.01 0.10 0.05 77
20260506181429 58 350 2.0 4.0 0.01 0.10 0.05 77
20260506180929 58 12 0.0 5.0 0.01 0.10 0.05 77
20260506180429 58 185 0.0 7.0 0.01 0.10 0.05 77
20260506175929 59 21 0.0 5.0 0.01 0.10 0.05 77
20260506175429 59 167 2.0 6.0 0.01 0.10 0.05 77
20260506174929 59 343 1.0 5.0 0.02 0.10 0.05 77
20260506174429 59 289 3.0 6.0 0.01 0.09 0.04 76
20260506173929 59 331 2.0 6.0 0.01 0.09 0.04 76
20260506173429 60 12 3.0 5.0 0.01 0.09 0.04 76
20260506172929 60 347 0.0 4.0 0.02 0.09 0.04 76
20260506172429 60 330 3.0 5.0 0.02 0.09 0.04 76
20260506171929 60 344 2.0 7.0 0.02 0.09 0.04 76
20260506171429 60 329 1.0 5.0 0.03 0.09 0.04 76
20260506170929 60 14 1.0 6.0 0.03 0.09 0.04 75
20260506170429 61 292 0.0 4.0 0.04 0.09 0.04 75
20260506165929 61 5 2.0 5.0 0.04 0.09 0.04 75
20260506165429 61 336 1.0 5.0 0.04 0.09 0.04 75
20260506164929 61 39 1.0 6.0 0.03 0.08 0.03 75
20260506164429 61 67 1.0 6.0 0.03 0.08 0.03 75
20260506163929 62 340 3.0 7.0 0.03 0.08 0.03 75
20260506163429 62 279 4.0 5.0 0.03 0.08 0.03 75
20260506162929 62 289 0.0 6.0 0.02 0.07 0.02 75
20260506162429 62 8 1.0 4.0 0.02 0.07 0.02 74
20260506161929 63 26 0.0 4.0 0.02 0.07 0.02 74
20260506161429 63 18 2.0 5.0 0.01 0.06 0.01 72
20260506160929 64 323 1.0 4.0 0.01 0.07 0.01 70
20260506160429 64 246 0.0 5.0 0.00 0.06 0.00 69
20260506155929 64 334 0.0 3.0 0.00 0.06 0.00 69
20260506155429 64 348 2.0 3.0 0.00 0.06 0.00 69
20260506154929 64 270 3.0 3.0 0.00 0.06 0.00 69
20260506154429 64 358 2.0 5.0 0.00 0.06 0.00 68
20260506153929 65 312 1.0 5.0 0.00 0.06 0.00 68
20260506153429 65 5 2.0 5.0 0.00 0.06 0.00 67
20260506152929 65 0 1.0 5.0 0.00 0.06 0.00 67
20260506152429 65 333 2.0 6.0 0.00 0.06 0.00 66
20260506151929 65 295 0.0 7.0 0.00 0.06 0.07 65
20260506151429 65 298 1.0 6.0 0.00 0.06 0.07 63
20260506150929 66 327 4.0 8.0 0.00 0.07 0.07 63
20260506150429 66 278 2.0 5.0 0.00 0.07 0.07 62
20260506145929 66 310 2.0 8.0 0.00 0.07 0.07 62
20260506145429 66 291 3.0 9.0 0.00 0.07 0.07 61
20260506144929 66 11 1.0 6.0 0.00 0.07 0.07 61
20260506144429 67 191 1.0 9.0 0.00 0.07 0.07 60
20260506143929 67 268 2.0 8.0 0.00 0.07 0.07 59
20260506143429 67 182 1.0 9.0 0.00 0.07 0.07 57
20260506142929 68 194 1.0 8.0 0.00 0.07 0.07 56
20260506142429 68 291 2.0 8.0 0.00 0.07 0.07 56
20260506141929 68 296 2.0 5.0 0.00 0.07 0.07 54
20260506141429 68 234 0.0 3.0 0.00 0.07 0.07 54
20260506140929 68 181 0.0 4.0 0.00 0.08 0.07 53
20260506140429 69 267 3.0 5.0 0.00 0.08 0.07 53
20260506135929 69 265 1.0 7.0 0.00 0.08 0.07 52
20260506135429 69 25 0.0 2.0 0.00 0.08 0.07 53
20260506134929 69 230 1.0 5.0 0.00 0.08 0.07 51
20260506134429 70 223 1.0 5.0 0.00 0.08 0.07 51
20260506133929 70 222 3.0 7.0 0.00 0.08 0.07 51
20260506133429 70 181 1.0 3.0 0.00 0.08 0.07 52
20260506132929 69 255 3.0 4.0 0.00 0.08 0.07 52
20260506132429 69 233 1.0 7.0 0.00 0.08 0.07 51
20260506131929 70 261 3.0 7.0 0.00 0.08 0.07 50
20260506131429 70 243 0.0 8.0 0.00 0.08 0.07 51
20260506130929 70 70 1.0 8.0 0.00 0.08 0.07 51
20260506130429 70 251 2.0 7.0 0.00 0.08 0.07 52
20260506125929 70 105 0.0 5.0 0.00 0.08 0.07 52
20260506125429 70 267 1.0 6.0 0.00 0.08 0.07 51
20260506124929 70 258 0.0 5.0 0.00 0.08 0.07 51
20260506124429 70 233 1.0 4.0 0.00 0.08 0.07 50
20260506123929 70 278 0.0 3.0 0.00 0.08 0.07 51
20260506123429 70 215 1.0 6.0 0.00 0.08 0.07 51
20260506122929 70 219 0.0 5.0 0.00 0.08 0.07 51
20260506122429 70 309 2.0 7.0 0.00 0.08 0.07 51
20260506121929 70 181 2.0 4.0 0.00 0.08 0.07 52
20260506121429 70 216 0.0 6.0 0.00 0.08 0.07 50
20260506120929 70 187 0.0 7.0 0.00 0.08 0.07 50
20260506120429 71 143 1.0 6.0 0.00 0.08 0.07 50
20260506115929 71 260 1.0 6.0 0.00 0.08 0.07 49
20260506115429 72 180 1.0 8.0 0.00 0.08 0.07 49
20260506114929 72 220 1.0 5.0 0.00 0.08 0.07 50
20260506114429 71 229 0.0 5.0 0.00 0.08 0.07 50
20260506113929 71 199 3.0 6.0 0.00 0.08 0.07 50
20260506113429 71 85 1.0 8.0 0.00 0.08 0.07 50
20260506112929 71 267 0.0 8.0 0.00 0.08 0.07 49
20260506112429 71 177 2.0 7.0 0.00 0.08 0.07 50
20260506111929 71 255 1.0 6.0 0.00 0.08 0.07 49
20260506111429 71 225 3.0 6.0 0.00 0.08 0.07 51
20260506110929 71 232 0.0 9.0 0.00 0.08 0.07 51
20260506110429 71 215 3.0 6.0 0.00 0.08 0.07 51
20260506105929 71 277 2.0 6.0 0.00 0.08 0.07 51
20260506105429 71 284 2.0 7.0 0.00 0.08 0.07 53
20260506104929 70 244 0.0 6.0 0.00 0.08 0.07 52
20260506104429 70 298 5.0 8.0 0.00 0.08 0.07 51
20260506103930 70 310 2.0 7.0 0.00 0.08 0.07 52
20260506103429 70 234 3.0 7.0 0.00 0.08 0.07 54
20260506102929 69 149 1.0 7.0 0.00 0.08 0.07 53
20260506102429 70 322 0.0 5.0 0.00 0.08 0.07 52
20260506101929 70 230 3.0 8.0 0.00 0.08 0.07 52
20260506101429 70 230 1.0 4.0 0.00 0.08 0.07 52
20260506100929 71 137 3.0 9.0 0.00 0.08 0.07 52
20260506100429 71 198 1.0 7.0 0.00 0.08 0.07 52
20260506095929 71 324 1.0 4.0 0.00 0.08 0.07 52
20260506095429 71 113 2.0 9.0 0.00 0.08 0.07 53
20260506094930 71 177 3.0 8.0 0.00 0.08 0.07 53
20260506094429 70 258 1.0 8.0 0.00 0.08 0.07 56
20260506093929 69 279 1.0 4.0 0.00 0.08 0.07 57
20260506093429 68 158 2.0 6.0 0.00 0.08 0.07 58
20260506092930 67 208 2.0 7.0 0.00 0.08 0.07 58
20260506092430 66 181 2.0 6.0 0.00 0.08 0.07 60
20260506091930 66 202 1.0 6.0 0.00 0.08 0.07 60
20260506091430 65 248 0.0 5.0 0.00 0.08 0.07 60
20260506090930 65 350 1.0 6.0 0.00 0.08 0.07 60
20260506090430 65 174 4.0 8.0 0.00 0.08 0.07 59
20260506085930 65 192 1.0 6.0 0.00 0.08 0.07 61
20260506085430 65 119 0.0 4.0 0.00 0.08 0.07 61
20260506084930 65 203 3.0 6.0 0.00 0.08 0.07 60
20260506084430 65 212 3.0 7.0 0.00 0.08 0.07 60
20260506083930 65 233 3.0 9.0 0.00 0.08 0.07 61
20260506083430 65 275 2.0 9.0 0.00 0.08 0.07 61
20260506082930 65 227 6.0 8.0 0.00 0.08 0.07 61
20260506082430 65 172 1.0 7.0 0.00 0.08 0.07 61
20260506081930 65 302 3.0 12.0 0.00 0.08 0.07 61
20260506081430 65 345 5.0 5.0 0.00 0.08 0.07 63
20260506080930 65 247 1.0 8.0 0.00 0.08 0.07 64
20260506080430 65 236 0.0 7.0 0.00 0.08 0.07 65
20260506073430 65 354 2.0 5.0 0.00 0.08 0.07 65
20260506072930 65 291 2.0 7.0 0.00 0.08 0.07 65
20260506072430 66 219 2.0 7.0 0.00 0.08 0.07 65
20260506071930 66 248 0.0 6.0 0.00 0.08 0.07 66
20260506071430 66 199 2.0 6.0 0.00 0.08 0.07 65
20260506070930 66 184 2.0 5.0 0.00 0.08 0.07 65
20260506070430 66 198 1.0 6.0 0.00 0.08 0.07 65